Find Starlink 35917

NORAD ID: 66503 Int'l Des: 2025-263 Owner: SPXS Country: US Constellation: starlink operational
LEOCIRCULAR

Live Position

Loading 3D Globe...

About Starlink 35917

Description loading...

Upcoming Passes

Passes for default location (London). Set your location on the main map for personalized predictions.

Altitude History

Loading altitude history...

Two-Line Element Set

1 66503U 25263U 26107.04773582 .00007269 00000-0 27333-3 0 9995
2 66503 42.9996 134.2077 0001161 274.1895 85.8824 15.27591252 24763
Epoch: Apr 17, 2026 • Age: 12 hours

Current Status

Altitude 494.3 km
Velocity 7.62 km/s
Sub-Earth Point -39.84°S, 29.71°W
Launch Date Nov 15, 2025
Age 0.4 years
Type internet

Technical Details

Classification Payload
Mass 575.00 kg
Dry Mass 530.00 kg
Total Mass 575.00 kg
Length 0.30 m
Diameter 4.10 m
Span 29.00 m
Shape Box + pan
Manufacturer SPXS
Bus Type Starlink V2MO
Phase Status In Orbit
Owner/State SPXS/US

Most Searched